Swan Point, Maryland
Current Conditions -  °F | °C
As of 8:34 AM on Friday 28 Nov 2014 (Local Time) from K2W6 Reporting Station
Clear Clear  
Wind Chill: 27°   Ceiling: Unl
Heat Index: 34°   Visibility: 10mi
Dew Point: 21°   Wind: 8mph
Humidity: 60%   Direction: 290°WNW
Pressure: 30.3"   Gusts: NA
Location:  38.3032°N, 76.8671°W
Report Text: K2W6 281334Z AUTO 29007KT 10SM CLR 01/M06 A3030 RMK AO1
Loading
Personal Weather Stations






























Interactive Weather Map New forecast layout! Learn more

10-Day Weather Forecast

Advertisements
Track Severe Weather on mobile